Weather in Russkoye Porechnoye

Russia / Kursk Oblast     51°19′26″N   35°20′21″E
temp.,
°C
wind,
m/s
gust,
m/s
humid.,
%
clouds,
%
prec.,
mm/h
press.,
hPa
HPBL,
m
23 october, sat
sat2300:00+8wsw386257 0.0 1012161
03:00+7sw4116130 0.0 1012240
06:00+7sw411620 0.0 1012241
09:00+9wsw512645 0.0 1012630
12:00+12w7104316 0.0 10131371
15:00+12w8124595 0.0 10131987
18:00+8w510565 0.0 1015461
21:00+6w510656 0.0 1017458
24 october, sun
sun2400:00+4wsw49725 0.0 1019245
03:00+3w498064 0.0 1019256
06:00+2wsw397986 0.0 1019210
09:00+5w5966100 0.0 1020489
12:00+7w6872100 0.1 1020944
15:00+6nw7106688 0.2 10211266
18:00+4nw61066100 0.0 10221080
21:00+3nnw711715 0.1 1024929
25 october, mon
mon2500:00+1nw612765 0.0 1026530
03:000nnw511865 0.0 1027378
06:00−1nnw410945 0.0 1029308
09:000nnw48825 0.0 1031350
12:00+4nnw45503 0.0 1032868
15:00+5nnw44405 0.0 10321071
18:00+2nnw22500 0.0 103318
21:00+1nw11580 0.0 103310
26 october, tue
tue2600:000sw22630 0.0 103410
03:00−1sw22680 0.0 103424
06:00−1sw33735 0.0 103432
09:00+1ssw356347 0.0 1033158
12:00+6sw463939 0.0 1032586
15:00+8sw56325 0.0 1030776
18:00+4ssw35445 0.0 103070
21:00+3ssw38485 0.0 1029135
27 october, wed
wed2700:00+1ssw39495 0.0 1029149
03:00+1ssw3950100 0.0 1028171
06:000ssw41051100 0.0 1027179
09:00+2ssw41145100 0.0 1027300
12:00+6sw6936100 0.0 1025510
15:00+7sw51045100 0.0 1023689
18:00+6sw41046100 0.0 1023426
21:00+4wsw41058100 0.0 1022254